Volver al catálogo

STARLINK-2493

ActivoComunicacionesVLEO
NORAD 48150·PAYLOAD·🇺🇸 United States

Lanzado Apr 7, 2021 desde Cape Canaveral Space Force Station

Loading…

Próximos Pases (próximas 24 horas)

TLE

ActualizadoSource: CelesTrak SupGP

Época: Sep 14, 2026, 20:31 UTC

1 48150C 21027BL  26257.85534722 -.00019640  00000+0 -63151-3 0  2575
2 48150  53.1602 352.4284 0001134  79.6924 207.4877 15.31714745    15

Sigue STARLINK-2493 en tiempo real con AllMySat

Download on the App Store